STARLINK-32748 (62524 NORAD) Tracking and Keplerian Element Data

This shows tracking and keplerian element data for the satellite.

Feedback or suggestion? Click here.




ElementValue
Catalog62524
NameSTARLINK-32748
Epoch Orbit529
Epoch Day35.33335648
Epoch Year2025
RAAN314.8781
Inclination42.9991
Eccentricity0.0001711
Argument of Perigee276.6322
Mean Anonmoly99.8274
Mean Motion15.44309742
Decay Rate-0.01501573
L11 62524U 25004P 25035.33335648 -.01501573 00000+0 -35214-1 0 9999
L22 62524 42.9991 314.8781 0001711 276.6322 99.8274 15.44309742 5299



Live tracking and technical data element details for STARLINK-32748 (NORAD 62524). STARLINK-32748 can be tracked NOW for your location showing map with azimuth and elevation plus other details from your city location.







IsCatalogInMostPopularTable: catalog: 62524, numindb: 13
Update: records affected: 1



GetName: 62524 STARLINK-32748

Hit Count: updated at: Sun, 18 May 2025 22:12:41 GMT